Time,TemperatureF,DewpointF,PressureIn,WindDirection,WindDirectionDegrees,WindSpeedMPH,WindSpeedGustMPH,Humidity,HourlyPrecipIn,Conditions,Clouds,dailyrainin,SoftwareType,DateUTC
2013-01-03 00:01:00,10.8,1.0,30.12,NNW,327,1.0,4.0,64,0.00,,,0.00,meteohub,2013-01-03 05:01:00,
2013-01-03 00:02:00,10.9,1.4,30.12,NNW,327,2.0,4.0,65,0.00,,,0.00,meteohub,2013-01-03 05:02:00,
2013-01-03 00:03:00,10.9,1.2,30.12,NNW,327,1.0,4.0,64,0.00,,,0.00,meteohub,2013-01-03 05:03:00,
2013-01-03 00:08:00,10.8,1.0,30.13,WNW,285,3.0,4.0,64,0.00,,,0.00,meteohub,2013-01-03 05:08:00,
2013-01-03 00:13:00,10.6,1.2,30.13,NW,304,2.0,4.0,65,0.00,,,0.00,meteohub,2013-01-03 05:13:00,
2013-01-03 00:18:00,10.6,0.5,30.13,NNW,334,3.0,4.0,63,0.00,,,0.00,meteohub,2013-01-03 05:18:00,
2013-01-03 00:23:00,10.6,0.9,30.13,NW,319,1.0,7.0,64,0.00,,,0.00,meteohub,2013-01-03 05:23:00,
2013-01-03 00:28:00,10.6,0.5,30.14,NW,325,1.0,7.0,63,0.00,,,0.00,meteohub,2013-01-03 05:28:00,
2013-01-03 00:33:00,10.4,0.0,30.13,NNW,344,1.0,7.0,62,0.00,,,0.00,meteohub,2013-01-03 05:33:00,
2013-01-03 00:38:00,10.2,-0.2,30.13,West,281,3.0,5.0,62,0.00,,,0.00,meteohub,2013-01-03 05:38:00,
2013-01-03 00:43:00,10.0,-0.4,30.13,NNW,341,1.0,7.0,62,0.00,,,0.00,meteohub,2013-01-03 05:43:00,
2013-01-03 00:48:00,9.9,-0.9,30.13,NW,322,2.0,7.0,61,0.00,,,0.00,meteohub,2013-01-03 05:48:00,
2013-01-03 00:53:00,9.7,-0.8,30.13,North,355,4.0,6.0,62,0.00,,,0.00,meteohub,2013-01-03 05:53:00,
2013-01-03 00:58:00,9.7,-0.8,30.14,WNW,302,3.0,6.0,62,0.00,,,0.00,meteohub,2013-01-03 05:58:00,
2013-01-03 01:03:00,9.3,-1.5,30.14,NNW,342,5.0,6.0,61,0.00,,,0.00,meteohub,2013-01-03 06:03:00,
2013-01-03 01:08:00,9.1,-1.7,30.14,NW,304,3.0,6.0,61,0.00,,,0.00,meteohub,2013-01-03 06:08:00,
2013-01-03 01:13:00,9.0,-1.5,30.14,WNW,288,3.0,6.0,62,0.00,,,0.00,meteohub,2013-01-03 06:13:00,
2013-01-03 01:18:00,8.8,-1.7,30.15,NW,318,1.0,6.0,62,0.00,,,0.00,meteohub,2013-01-03 06:18:00,
2013-01-03 01:23:00,8.6,-1.7,30.15,NW,309,0.0,6.0,62,0.00,,,0.00,meteohub,2013-01-03 06:23:00,
2013-01-03 01:28:00,8.4,-1.7,30.16,WNW,287,1.0,4.0,63,0.00,,,0.00,meteohub,2013-01-03 06:28:00,
2013-01-03 01:33:00,8.2,-2.0,30.16,NW,313,1.0,6.0,62,0.00,,,0.00,meteohub,2013-01-03 06:33:00,
2013-01-03 01:38:00,8.2,-1.8,30.16,NW,310,2.0,6.0,63,0.00,,,0.00,meteohub,2013-01-03 06:38:00,
2013-01-03 01:43:00,8.1,-2.6,30.16,NW,323,3.0,4.0,61,0.00,,,0.00,meteohub,2013-01-03 06:43:00,
2013-01-03 01:48:00,7.9,-2.4,30.16,NW,321,1.0,4.0,62,0.00,,,0.00,meteohub,2013-01-03 06:48:00,
2013-01-03 01:53:00,7.5,-2.7,30.16,West,275,5.0,5.0,62,0.00,,,0.00,meteohub,2013-01-03 06:53:00,
2013-01-03 01:58:00,7.5,-2.7,30.16,WNW,284,4.0,6.0,62,0.00,,,0.00,meteohub,2013-01-03 06:58:00,
2013-01-03 02:03:00,7.3,-3.3,30.16,WNW,300,3.0,7.0,61,0.00,,,0.00,meteohub,2013-01-03 07:03:00,
2013-01-03 02:08:00,7.3,-3.6,30.16,WNW,285,5.0,7.0,60,0.00,,,0.00,meteohub,2013-01-03 07:08:00,
2013-01-03 02:13:00,7.3,-4.0,30.16,NNW,338,1.0,7.0,59,0.00,,,0.00,meteohub,2013-01-03 07:13:00,
2013-01-03 02:18:00,7.3,-3.6,30.15,NW,317,1.0,7.0,60,0.00,,,0.00,meteohub,2013-01-03 07:18:00,
2013-01-03 02:23:00,7.0,-4.0,30.16,West,279,4.0,6.0,60,0.00,,,0.00,meteohub,2013-01-03 07:23:00,
2013-01-03 02:28:00,6.8,-4.2,30.16,West,277,3.0,4.0,60,0.00,,,0.00,meteohub,2013-01-03 07:28:00,
2013-01-03 02:33:00,6.8,-4.2,30.16,WNW,289,2.0,8.0,60,0.00,,,0.00,meteohub,2013-01-03 07:33:00,
2013-01-03 02:38:00,6.6,-4.4,30.16,WNW,301,3.0,8.0,60,0.00,,,0.00,meteohub,2013-01-03 07:38:00,
2013-01-03 02:43:00,6.6,-4.7,30.15,NW,307,2.0,8.0,59,0.00,,,0.00,meteohub,2013-01-03 07:43:00,
2013-01-03 02:48:00,6.4,-4.9,30.15,WNW,302,2.0,6.0,59,0.00,,,0.00,meteohub,2013-01-03 07:48:00,
2013-01-03 02:53:00,6.4,-4.9,30.15,NW,310,2.0,6.0,59,0.00,,,0.00,meteohub,2013-01-03 07:53:00,
2013-01-03 02:58:00,6.3,-5.1,30.15,WNW,285,3.0,4.0,59,0.00,,,0.00,meteohub,2013-01-03 07:58:00,
2013-01-03 03:03:00,6.3,-5.1,30.15,WNW,300,2.0,3.0,59,0.00,,,0.00,meteohub,2013-01-03 08:03:00,
2013-01-03 03:08:00,6.1,-4.9,30.15,WNW,288,4.0,5.0,60,0.00,,,0.00,meteohub,2013-01-03 08:08:00,
2013-01-03 03:13:00,5.9,-5.1,30.15,WNW,290,3.0,5.0,60,0.00,,,0.00,meteohub,2013-01-03 08:13:00,
2013-01-03 03:18:00,5.7,-5.1,30.15,WNW,300,3.0,5.0,60,0.00,,,0.00,meteohub,2013-01-03 08:18:00,
2013-01-03 03:24:00,5.5,-5.1,30.15,WNW,299,2.0,5.0,61,0.00,,,0.00,meteohub,2013-01-03 08:24:00,
2013-01-03 03:29:00,5.5,-5.1,30.15,WNW,282,3.0,5.0,61,0.00,,,0.00,meteohub,2013-01-03 08:29:00,
2013-01-03 03:33:00,5.5,-5.1,30.15,WNW,286,3.0,5.0,61,0.00,,,0.00,meteohub,2013-01-03 08:33:00,
2013-01-03 03:39:00,5.4,-5.1,30.15,WNW,302,3.0,5.0,61,0.00,,,0.00,meteohub,2013-01-03 08:39:00,
2013-01-03 03:44:00,5.4,-4.9,30.14,WNW,291,1.0,5.0,62,0.00,,,0.00,meteohub,2013-01-03 08:44:00,
2013-01-03 03:49:00,5.2,-5.1,30.14,NW,324,2.0,5.0,62,0.00,,,0.00,meteohub,2013-01-03 08:49:00,
2013-01-03 03:54:00,5.2,-5.3,30.14,NW,324,2.0,4.0,61,0.00,,,0.00,meteohub,2013-01-03 08:54:00,
2013-01-03 03:59:00,5.2,-5.1,30.13,WNW,301,1.0,4.0,62,0.00,,,0.00,meteohub,2013-01-03 08:59:00,
2013-01-03 04:04:00,5.0,-5.1,30.13,NW,304,1.0,4.0,62,0.00,,,0.00,meteohub,2013-01-03 09:04:00,
2013-01-03 04:09:00,5.0,-5.1,30.13,NW,324,2.0,3.0,62,0.00,,,0.00,meteohub,2013-01-03 09:09:00,
2013-01-03 04:14:00,5.0,-5.8,30.14,NW,324,1.0,3.0,60,0.00,,,0.00,meteohub,2013-01-03 09:14:00,
2013-01-03 04:19:00,4.8,-6.0,30.13,NW,324,0.0,3.0,60,0.00,,,0.00,meteohub,2013-01-03 09:19:00,
2013-01-03 04:24:00,4.8,-5.3,30.13,NW,324,0.0,3.0,62,0.00,,,0.00,meteohub,2013-01-03 09:24:00,
2013-01-03 04:29:00,4.6,-5.8,30.14,NW,324,0.0,2.0,61,0.00,,,0.00,meteohub,2013-01-03 09:29:00,
2013-01-03 04:34:00,4.6,-6.2,30.13,NW,324,0.0,2.0,60,0.00,,,0.00,meteohub,2013-01-03 09:34:00,
2013-01-03 04:39:00,4.6,-5.8,30.13,NW,324,1.0,2.0,61,0.00,,,0.00,meteohub,2013-01-03 09:39:00,
2013-01-03 04:44:00,4.6,-5.8,30.13,NW,324,0.0,3.0,61,0.00,,,0.00,meteohub,2013-01-03 09:44:00,
2013-01-03 04:49:00,4.6,-6.2,30.13,NW,324,1.0,3.0,60,0.00,,,0.00,meteohub,2013-01-03 09:49:00,
2013-01-03 04:54:00,4.6,-6.2,30.13,WNW,285,2.0,3.0,60,0.00,,,0.00,meteohub,2013-01-03 09:54:00,
2013-01-03 04:59:00,4.6,-5.8,30.13,WNW,290,2.0,2.0,61,0.00,,,0.00,meteohub,2013-01-03 09:59:00,
2013-01-03 05:04:00,4.6,-5.8,30.13,WNW,290,3.0,4.0,61,0.00,,,0.00,meteohub,2013-01-03 10:04:00,
2013-01-03 05:09:00,4.6,-5.8,30.13,WNW,289,2.0,4.0,61,0.00,,,0.00,meteohub,2013-01-03 10:09:00,
2013-01-03 05:14:00,4.6,-5.8,30.13,WNW,302,2.0,4.0,61,0.00,,,0.00,meteohub,2013-01-03 10:14:00,
2013-01-03 05:19:00,4.6,-5.8,30.13,NW,313,2.0,4.0,61,0.00,,,0.00,meteohub,2013-01-03 10:19:00,
2013-01-03 05:24:00,4.5,-6.0,30.13,NW,309,1.0,4.0,61,0.00,,,0.00,meteohub,2013-01-03 10:24:00,
2013-01-03 05:29:00,4.5,-5.6,30.13,WNW,287,3.0,3.0,62,0.00,,,0.00,meteohub,2013-01-03 10:29:00,
2013-01-03 05:34:00,4.5,-5.6,30.13,West,279,4.0,4.0,62,0.00,,,0.00,meteohub,2013-01-03 10:34:00,
2013-01-03 05:39:00,4.1,-5.6,30.13,WNW,284,4.0,4.0,63,0.00,,,0.00,meteohub,2013-01-03 10:39:00,
2013-01-03 05:44:00,4.3,-5.4,30.13,WNW,290,2.0,5.0,63,0.00,,,0.00,meteohub,2013-01-03 10:44:00,
2013-01-03 05:49:00,4.3,-5.8,30.13,WNW,290,2.0,5.0,62,0.00,,,0.00,meteohub,2013-01-03 10:49:00,
2013-01-03 05:54:00,4.3,-5.8,30.13,WNW,286,2.0,5.0,62,0.00,,,0.00,meteohub,2013-01-03 10:54:00,
2013-01-03 05:59:00,4.3,-5.8,30.13,WNW,283,2.0,4.0,62,0.00,,,0.00,meteohub,2013-01-03 10:59:00,
2013-01-03 06:04:00,4.3,-5.8,30.13,WNW,284,3.0,4.0,62,0.00,,,0.00,meteohub,2013-01-03 11:04:00,
2013-01-03 06:09:00,4.3,-5.8,30.13,WNW,302,2.0,4.0,62,0.00,,,0.00,meteohub,2013-01-03 11:09:00,
2013-01-03 06:14:00,4.3,-5.8,30.13,WNW,287,2.0,4.0,62,0.00,,,0.00,meteohub,2013-01-03 11:14:00,
2013-01-03 06:19:00,3.9,-6.2,30.13,WNW,290,2.0,4.0,62,0.00,,,0.00,meteohub,2013-01-03 11:19:00,
2013-01-03 06:24:00,3.9,-6.2,30.13,WNW,285,2.0,4.0,62,0.00,,,0.00,meteohub,2013-01-03 11:24:00,
2013-01-03 06:29:00,3.7,-6.0,30.13,WNW,286,3.0,3.0,63,0.00,,,0.00,meteohub,2013-01-03 11:29:00,
2013-01-03 06:34:00,3.7,-6.0,30.13,West,281,2.0,4.0,63,0.00,,,0.00,meteohub,2013-01-03 11:34:00,
2013-01-03 06:39:00,3.7,-6.0,30.13,West,279,1.0,4.0,63,0.00,,,0.00,meteohub,2013-01-03 11:39:00,
2013-01-03 06:44:00,3.7,-6.0,30.13,WSW,254,4.0,4.0,63,0.00,,,0.00,meteohub,2013-01-03 11:44:00,
2013-01-03 06:49:00,3.7,-6.0,30.13,West,281,2.0,4.0,63,0.00,,,0.00,meteohub,2013-01-03 11:49:00,
2013-01-03 06:54:00,3.7,-6.0,30.13,West,281,0.0,4.0,63,0.00,,,0.00,meteohub,2013-01-03 11:54:00,
2013-01-03 06:59:00,4.1,-5.6,30.14,West,281,1.0,4.0,63,0.00,,,0.00,meteohub,2013-01-03 11:59:00,
2013-01-03 07:04:00,3.7,-5.6,30.14,West,281,0.0,3.0,64,0.00,,,0.00,meteohub,2013-01-03 12:04:00,
2013-01-03 07:09:00,3.6,-5.8,30.14,WNW,282,0.0,3.0,64,0.00,,,0.00,meteohub,2013-01-03 12:09:00,
2013-01-03 07:14:00,3.9,-5.8,30.14,WNW,282,1.0,2.0,63,0.00,,,0.00,meteohub,2013-01-03 12:14:00,
2013-01-03 07:19:00,3.9,-5.8,30.14,WNW,282,0.0,2.0,63,0.00,,,0.00,meteohub,2013-01-03 12:19:00,
2013-01-03 07:25:00,3.7,-5.6,30.14,WNW,282,0.0,2.0,64,0.00,,,0.00,meteohub,2013-01-03 12:25:00,
2013-01-03 07:30:00,3.7,-6.0,30.15,WNW,282,1.0,2.0,63,0.00,,,0.00,meteohub,2013-01-03 12:30:00,
2013-01-03 07:35:00,3.9,-5.8,30.15,WNW,282,0.0,2.0,63,0.00,,,0.00,meteohub,2013-01-03 12:35:00,
2013-01-03 07:40:00,4.1,-5.6,30.15,WNW,282,1.0,2.0,63,0.00,,,0.00,meteohub,2013-01-03 12:40:00,
2013-01-03 07:45:00,4.3,-5.3,30.15,WNW,287,2.0,3.0,64,0.00,,,0.00,meteohub,2013-01-03 12:45:00,
2013-01-03 07:50:00,4.3,-5.4,30.14,WNW,300,0.0,3.0,63,0.00,,,0.00,meteohub,2013-01-03 12:50:00,
2013-01-03 07:55:00,4.6,-5.4,30.14,NW,311,1.0,3.0,62,0.00,,,0.00,meteohub,2013-01-03 12:55:00,
2013-01-03 08:00:00,5.2,-5.1,30.14,NW,313,1.0,3.0,62,0.00,,,0.00,meteohub,2013-01-03 13:00:00,
2013-01-03 08:05:00,5.4,-5.4,30.14,NW,316,1.0,3.0,60,0.00,,,0.00,meteohub,2013-01-03 13:05:00,
2013-01-03 08:10:00,5.4,-4.9,30.14,WNW,301,2.0,3.0,62,0.00,,,0.00,meteohub,2013-01-03 13:10:00,
2013-01-03 08:15:00,5.4,-4.9,30.14,WNW,286,3.0,3.0,62,0.00,,,0.00,meteohub,2013-01-03 13:15:00,
2013-01-03 08:20:00,5.5,-5.1,30.14,West,280,2.0,4.0,61,0.00,,,0.00,meteohub,2013-01-03 13:20:00,
2013-01-03 08:25:00,6.1,-4.5,30.15,West,275,3.0,4.0,61,0.00,,,0.00,meteohub,2013-01-03 13:25:00,
2013-01-03 08:30:00,6.4,-4.9,30.14,WNW,300,2.0,5.0,59,0.00,,,0.00,meteohub,2013-01-03 13:30:00,
2013-01-03 08:35:00,7.0,-4.4,30.14,NW,323,2.0,5.0,59,0.00,,,0.00,meteohub,2013-01-03 13:35:00,
2013-01-03 08:40:00,7.2,-4.9,30.14,West,278,3.0,5.0,57,0.00,,,0.00,meteohub,2013-01-03 13:40:00,
2013-01-03 08:45:00,7.5,-4.2,30.14,WNW,294,1.0,6.0,58,0.00,,,0.00,meteohub,2013-01-03 13:45:00,
2013-01-03 08:50:00,7.9,-4.2,30.14,West,278,3.0,6.0,57,0.00,,,0.00,meteohub,2013-01-03 13:50:00,
2013-01-03 08:55:00,8.2,-4.2,30.14,WNW,300,1.0,6.0,56,0.00,,,0.00,meteohub,2013-01-03 13:55:00,
2013-01-03 09:00:00,8.8,-3.6,30.14,WNW,282,1.0,4.0,56,0.00,,,0.00,meteohub,2013-01-03 14:00:00,
2013-01-03 09:05:00,9.5,-3.1,30.13,WNW,282,1.0,4.0,56,0.00,,,0.00,meteohub,2013-01-03 14:05:00,
2013-01-03 09:10:00,10.0,-3.3,30.13,West,276,3.0,3.0,54,0.00,,,0.00,meteohub,2013-01-03 14:10:00,
2013-01-03 09:15:00,10.8,-2.2,30.13,WSW,246,2.0,4.0,55,0.00,,,0.00,meteohub,2013-01-03 14:15:00,
2013-01-03 09:20:00,10.9,-2.9,30.14,WNW,287,0.0,5.0,53,0.00,,,0.00,meteohub,2013-01-03 14:20:00,
2013-01-03 09:25:00,11.7,-2.9,30.13,WNW,296,3.0,5.0,51,0.00,,,0.00,meteohub,2013-01-03 14:25:00,
2013-01-03 09:30:00,11.7,-2.6,30.14,WNW,284,2.0,6.0,52,0.00,,,0.00,meteohub,2013-01-03 14:30:00,
2013-01-03 09:35:00,12.0,-2.6,30.14,NW,306,1.0,6.0,51,0.00,,,0.00,meteohub,2013-01-03 14:35:00,
2013-01-03 09:40:00,12.6,-2.6,30.14,NW,313,3.0,6.0,50,0.00,,,0.00,meteohub,2013-01-03 14:40:00,
2013-01-03 09:45:00,13.1,-2.0,30.14,NNW,330,2.0,6.0,50,0.00,,,0.00,meteohub,2013-01-03 14:45:00,
2013-01-03 09:50:00,13.5,-2.2,30.14,WNW,290,1.0,5.0,49,0.00,,,0.00,meteohub,2013-01-03 14:50:00,
2013-01-03 09:55:00,14.0,-2.0,30.14,West,276,4.0,5.0,48,0.00,,,0.00,meteohub,2013-01-03 14:55:00,
2013-01-03 10:00:00,14.2,-1.8,30.13,NW,315,2.0,6.0,48,0.00,,,0.00,meteohub,2013-01-03 15:00:00,
2013-01-03 10:05:00,14.7,-0.9,30.13,WNW,293,3.0,6.0,49,0.00,,,0.00,meteohub,2013-01-03 15:05:00,
2013-01-03 10:10:00,15.4,-0.4,30.13,WNW,301,2.0,5.0,49,0.00,,,0.00,meteohub,2013-01-03 15:10:00,
2013-01-03 10:15:00,15.6,-0.9,30.13,West,281,4.0,5.0,47,0.00,,,0.00,meteohub,2013-01-03 15:15:00,
2013-01-03 10:20:00,15.3,-2.2,30.13,West,275,3.0,7.0,45,0.00,,,0.00,meteohub,2013-01-03 15:20:00,
2013-01-03 10:25:00,16.0,-1.1,30.12,West,273,6.0,7.0,46,0.00,,,0.00,meteohub,2013-01-03 15:25:00,
2013-01-03 10:30:00,16.2,-1.8,30.13,West,264,5.0,7.0,44,0.00,,,0.00,meteohub,2013-01-03 15:30:00,
2013-01-03 10:35:00,16.2,-1.5,30.12,WNW,292,2.0,9.0,45,0.00,,,0.00,meteohub,2013-01-03 15:35:00,
2013-01-03 10:40:00,16.5,-1.7,30.12,WNW,292,4.0,9.0,44,0.00,,,0.00,meteohub,2013-01-03 15:40:00,
2013-01-03 10:45:00,16.9,-1.3,30.12,West,279,4.0,9.0,44,0.00,,,0.00,meteohub,2013-01-03 15:45:00,
2013-01-03 10:50:00,17.4,-0.2,30.12,West,265,5.0,7.0,45,0.00,,,0.00,meteohub,2013-01-03 15:50:00,
2013-01-03 10:55:00,17.8,-1.5,30.12,WNW,288,3.0,7.0,42,0.00,,,0.00,meteohub,2013-01-03 15:55:00,
2013-01-03 11:00:00,18.1,-0.6,30.12,West,281,4.0,8.0,43,0.00,,,0.00,meteohub,2013-01-03 16:00:00,
2013-01-03 11:05:00,18.1,-0.6,30.12,NW,316,3.0,10.0,43,0.00,,,0.00,meteohub,2013-01-03 16:05:00,
2013-01-03 11:10:00,18.3,-2.0,30.12,WNW,291,3.0,10.0,40,0.00,,,0.00,meteohub,2013-01-03 16:10:00,
2013-01-03 11:15:00,18.9,-0.9,30.12,West,268,7.0,10.0,41,0.00,,,0.00,meteohub,2013-01-03 16:15:00,
2013-01-03 11:20:00,19.0,-0.8,30.12,WNW,297,2.0,8.0,41,0.00,,,0.00,meteohub,2013-01-03 16:20:00,
2013-01-03 11:25:00,19.2,-1.1,30.12,WNW,295,3.0,8.0,40,0.00,,,0.00,meteohub,2013-01-03 16:25:00,
2013-01-03 11:30:00,19.6,-0.8,30.12,NW,319,1.0,8.0,40,0.00,,,0.00,meteohub,2013-01-03 16:30:00,
2013-01-03 11:36:00,19.9,0.0,30.11,NW,323,2.0,8.0,41,0.00,,,0.00,meteohub,2013-01-03 16:36:00,
2013-01-03 11:41:00,19.8,-1.7,30.11,West,277,3.0,7.0,38,0.00,,,0.00,meteohub,2013-01-03 16:41:00,
2013-01-03 11:46:00,20.3,-0.8,30.10,West,281,3.0,6.0,39,0.00,,,0.00,meteohub,2013-01-03 16:46:00,
2013-01-03 11:51:00,20.7,0.7,30.10,West,275,4.0,6.0,41,0.00,,,0.00,meteohub,2013-01-03 16:51:00,
2013-01-03 11:56:00,20.7,-0.9,30.10,WNW,303,4.0,5.0,38,0.00,,,0.00,meteohub,2013-01-03 16:56:00,
2013-01-03 12:01:00,20.8,-0.2,30.10,WNW,296,1.0,5.0,39,0.00,,,0.00,meteohub,2013-01-03 17:01:00,
2013-01-03 12:06:00,20.5,0.0,30.09,WNW,296,2.0,5.0,40,0.00,,,0.00,meteohub,2013-01-03 17:06:00,
2013-01-03 12:11:00,20.7,0.7,30.09,NW,310,3.0,5.0,41,0.00,,,0.00,meteohub,2013-01-03 17:11:00,
2013-01-03 12:16:00,20.8,-0.2,30.09,NNW,333,2.0,4.0,39,0.00,,,0.00,meteohub,2013-01-03 17:16:00,
2013-01-03 12:21:00,21.0,-0.6,30.08,WNW,290,2.0,6.0,38,0.00,,,0.00,meteohub,2013-01-03 17:21:00,
2013-01-03 12:26:00,20.7,-0.9,30.08,West,261,6.0,6.0,38,0.00,,,0.00,meteohub,2013-01-03 17:26:00,
2013-01-03 12:31:00,20.5,-1.1,30.08,WNW,296,4.0,7.0,38,0.00,,,0.00,meteohub,2013-01-03 17:31:00,
2013-01-03 12:36:00,20.7,-0.4,30.08,WNW,282,6.0,8.0,39,0.00,,,0.00,meteohub,2013-01-03 17:36:00,
2013-01-03 12:41:00,19.8,-2.9,30.08,WNW,282,4.0,9.0,36,0.00,,,0.00,meteohub,2013-01-03 17:41:00,
2013-01-03 12:46:00,19.9,-2.7,30.07,West,262,5.0,9.0,36,0.00,,,0.00,meteohub,2013-01-03 17:46:00,
2013-01-03 12:51:00,20.1,-0.9,30.07,WNW,298,2.0,9.0,39,0.00,,,0.00,meteohub,2013-01-03 17:51:00,
2013-01-03 12:56:00,20.3,-1.3,30.08,WNW,288,2.0,9.0,38,0.00,,,0.00,meteohub,2013-01-03 17:56:00,
2013-01-03 13:01:00,20.1,-2.0,30.07,WNW,303,2.0,8.0,37,0.00,,,0.00,meteohub,2013-01-03 18:01:00,
2013-01-03 13:06:00,20.1,-0.4,30.07,West,277,2.0,8.0,40,0.00,,,0.00,meteohub,2013-01-03 18:06:00,
2013-01-03 13:11:00,19.9,-1.7,30.07,West,267,8.0,8.0,38,0.00,,,0.00,meteohub,2013-01-03 18:11:00,
2013-01-03 13:16:00,19.9,-2.7,30.07,West,278,5.0,9.0,36,0.00,,,0.00,meteohub,2013-01-03 18:16:00,
2013-01-03 13:21:00,19.9,-1.1,30.07,WNW,302,3.0,9.0,39,0.00,,,0.00,meteohub,2013-01-03 18:21:00,
2013-01-03 13:26:00,20.3,-1.8,30.06,West,269,7.0,9.0,37,0.00,,,0.00,meteohub,2013-01-03 18:26:00,
2013-01-03 13:31:00,20.3,-2.4,30.06,WNW,289,2.0,8.0,36,0.00,,,0.00,meteohub,2013-01-03 18:31:00,
2013-01-03 13:36:00,20.1,-2.6,30.06,NW,312,3.0,8.0,36,0.00,,,0.00,meteohub,2013-01-03 18:36:00,
2013-01-03 13:41:00,20.1,-3.1,30.06,West,266,6.0,9.0,35,0.00,,,0.00,meteohub,2013-01-03 18:41:00,
2013-01-03 13:46:00,20.5,-2.2,30.07,WNW,283,4.0,9.0,36,0.00,,,0.00,meteohub,2013-01-03 18:46:00,
2013-01-03 13:51:00,20.7,-2.7,30.06,West,277,4.0,9.0,35,0.00,,,0.00,meteohub,2013-01-03 18:51:00,
2013-01-03 13:56:00,20.7,-1.5,30.06,West,277,4.0,9.0,37,0.00,,,0.00,meteohub,2013-01-03 18:56:00,
2013-01-03 14:01:00,20.8,-1.8,30.06,West,280,6.0,8.0,36,0.00,,,0.00,meteohub,2013-01-03 19:01:00,
2013-01-03 14:06:00,20.8,-1.3,30.06,WNW,296,3.0,8.0,37,0.00,,,0.00,meteohub,2013-01-03 19:06:00,
2013-01-03 14:11:00,21.0,-1.8,30.06,NNW,334,3.0,8.0,36,0.00,,,0.00,meteohub,2013-01-03 19:11:00,
2013-01-03 14:16:00,21.6,-1.8,30.06,WNW,296,1.0,8.0,35,0.00,,,0.00,meteohub,2013-01-03 19:16:00,
2013-01-03 14:52:00,22.6,0.9,30.06,NNW,330,2.0,9.0,38,0.00,,,0.00,meteohub,2013-01-03 19:52:00,
2013-01-03 14:57:00,22.8,1.6,30.06,WNW,293,3.0,9.0,39,0.00,,,0.00,meteohub,2013-01-03 19:57:00,
2013-01-03 15:02:00,22.8,1.6,30.06,NW,315,4.0,4.0,39,0.00,,,0.00,meteohub,2013-01-03 20:02:00,
2013-01-03 15:07:00,22.8,1.6,30.06,WNW,290,3.0,5.0,39,0.00,,,0.00,meteohub,2013-01-03 20:07:00,
2013-01-03 15:12:00,22.8,2.1,30.05,WNW,286,3.0,5.0,40,0.00,,,0.00,meteohub,2013-01-03 20:12:00,
2013-01-03 15:17:00,22.8,2.7,30.05,WNW,297,3.0,5.0,41,0.00,,,0.00,meteohub,2013-01-03 20:17:00,
2013-01-03 15:22:00,22.6,2.5,30.05,NW,307,1.0,6.0,41,0.00,,,0.00,meteohub,2013-01-03 20:22:00,
2013-01-03 15:27:00,22.6,3.0,30.05,WNW,298,1.0,6.0,42,0.00,,,0.00,meteohub,2013-01-03 20:27:00,
2013-01-03 15:32:00,22.6,3.6,30.05,NW,317,3.0,6.0,43,0.00,,,0.00,meteohub,2013-01-03 20:32:00,
2013-01-03 15:37:00,22.5,4.3,30.06,WNW,290,2.0,5.0,45,0.00,,,0.00,meteohub,2013-01-03 20:37:00,
2013-01-03 15:42:00,22.5,4.8,30.06,WNW,294,1.0,5.0,46,0.00,,,0.00,meteohub,2013-01-03 20:42:00,
2013-01-03 15:47:00,22.3,4.1,30.06,WNW,296,2.0,5.0,45,0.00,,,0.00,meteohub,2013-01-03 20:47:00,
2013-01-03 15:52:00,22.1,5.0,30.06,WNW,296,1.0,4.0,47,0.00,,,0.00,meteohub,2013-01-03 20:52:00,
2013-01-03 15:57:00,22.3,5.2,30.06,NW,309,1.0,3.0,47,0.00,,,0.00,meteohub,2013-01-03 20:57:00,
2013-01-03 16:02:00,22.3,4.6,30.06,West,277,1.0,3.0,46,0.00,,,0.00,meteohub,2013-01-03 21:02:00,
2013-01-03 16:07:00,22.3,5.5,30.05,West,274,0.0,4.0,48,0.00,,,0.00,meteohub,2013-01-03 21:07:00,
2013-01-03 16:12:00,22.3,5.2,30.05,WNW,282,1.0,4.0,47,0.00,,,0.00,meteohub,2013-01-03 21:12:00,
2013-01-03 16:17:00,21.9,4.8,30.04,WNW,282,0.0,4.0,47,0.00,,,0.00,meteohub,2013-01-03 21:17:00,
2013-01-03 16:22:00,21.7,5.5,30.04,WNW,282,1.0,4.0,49,0.00,,,0.00,meteohub,2013-01-03 21:22:00,
2013-01-03 16:27:00,21.2,6.3,30.05,WNW,282,0.0,4.0,52,0.00,,,0.00,meteohub,2013-01-03 21:27:00,
2013-01-03 16:32:00,20.8,5.9,30.05,WNW,282,0.0,2.0,52,0.00,,,0.00,meteohub,2013-01-03 21:32:00,
2013-01-03 16:37:00,20.5,6.4,30.05,WNW,282,0.0,2.0,54,0.00,,,0.00,meteohub,2013-01-03 21:37:00,
2013-01-03 16:42:00,20.3,7.2,30.04,WNW,282,0.0,3.0,56,0.00,,,0.00,meteohub,2013-01-03 21:42:00,
2013-01-03 16:47:00,20.1,7.7,30.05,WNW,282,0.0,3.0,58,0.00,,,0.00,meteohub,2013-01-03 21:47:00,
2013-01-03 16:52:00,19.8,7.3,30.05,WNW,282,0.0,3.0,58,0.00,,,0.00,meteohub,2013-01-03 21:52:00,
2013-01-03 16:57:00,19.4,7.0,30.05,WNW,282,0.0,1.0,58,0.00,,,0.00,meteohub,2013-01-03 21:57:00,
2013-01-03 17:02:00,18.9,7.3,30.05,WNW,282,0.0,0.0,60,0.00,,,0.00,meteohub,2013-01-03 22:02:00,
2013-01-03 17:07:00,18.9,7.3,30.05,WNW,282,0.0,0.0,60,0.00,,,0.00,meteohub,2013-01-03 22:07:00,
2013-01-03 17:12:00,18.7,7.2,30.06,WNW,296,1.0,0.0,60,0.00,,,0.00,meteohub,2013-01-03 22:12:00,
2013-01-03 17:17:00,18.9,7.7,30.05,NW,304,0.0,2.0,61,0.00,,,0.00,meteohub,2013-01-03 22:17:00,
2013-01-03 17:22:00,19.0,7.9,30.06,NW,304,1.0,2.0,61,0.00,,,0.00,meteohub,2013-01-03 22:22:00,
2013-01-03 17:27:00,19.2,8.4,30.06,WNW,300,1.0,2.0,62,0.00,,,0.00,meteohub,2013-01-03 22:27:00,
2013-01-03 17:32:00,19.4,8.1,30.06,WNW,300,1.0,3.0,61,0.00,,,0.00,meteohub,2013-01-03 22:32:00,
2013-01-03 17:37:00,19.4,8.1,30.06,WNW,300,0.0,3.0,61,0.00,,,0.00,meteohub,2013-01-03 22:37:00,
2013-01-03 17:42:00,19.2,7.7,30.05,WNW,300,0.0,3.0,60,0.00,,,0.00,meteohub,2013-01-03 22:42:00,
2013-01-03 17:47:00,19.6,7.9,30.05,WNW,300,0.0,1.0,60,0.00,,,0.00,meteohub,2013-01-03 22:47:00,
2013-01-03 17:52:00,19.4,7.7,30.05,WNW,300,0.0,0.0,60,0.00,,,0.00,meteohub,2013-01-03 22:52:00,
2013-01-03 17:57:00,19.0,8.2,30.05,WNW,300,0.0,0.0,62,0.00,,,0.00,meteohub,2013-01-03 22:57:00,
2013-01-03 18:02:00,18.7,7.9,30.06,WNW,300,0.0,0.0,62,0.00,,,0.00,meteohub,2013-01-03 23:02:00,
2013-01-03 18:07:00,18.7,7.9,30.06,WNW,300,0.0,0.0,62,0.00,,,0.00,meteohub,2013-01-03 23:07:00,
2013-01-03 18:12:00,18.3,8.2,30.06,WNW,300,0.0,0.0,64,0.00,,,0.00,meteohub,2013-01-03 23:12:00,
2013-01-03 18:17:00,18.1,7.7,30.06,WNW,300,0.0,0.0,63,0.00,,,0.00,meteohub,2013-01-03 23:17:00,
2013-01-03 18:22:00,17.8,7.3,30.06,WNW,300,0.0,0.0,63,0.00,,,0.00,meteohub,2013-01-03 23:22:00,
2013-01-03 18:27:00,17.4,7.3,30.06,WNW,300,0.0,1.0,64,0.00,,,0.00,meteohub,2013-01-03 23:27:00,
2013-01-03 18:32:00,18.0,7.5,30.06,WNW,300,0.0,1.0,63,0.00,,,0.00,meteohub,2013-01-03 23:32:00,
2013-01-03 18:37:00,17.6,7.2,30.06,WNW,300,0.0,1.0,63,0.00,,,0.00,meteohub,2013-01-03 23:37:00,
2013-01-03 18:42:00,17.6,7.5,30.06,WNW,299,0.0,0.0,64,0.00,,,0.00,meteohub,2013-01-03 23:42:00,
2013-01-03 18:47:00,17.4,7.3,30.06,WNW,300,0.0,1.0,64,0.00,,,0.00,meteohub,2013-01-03 23:47:00,
2013-01-03 18:52:00,17.4,7.3,30.06,WNW,300,0.0,1.0,64,0.00,,,0.00,meteohub,2013-01-03 23:52:00,
2013-01-03 18:57:00,17.4,7.3,30.07,WNW,300,0.0,1.0,64,0.00,,,0.00,meteohub,2013-01-03 23:57:00,
2013-01-03 19:02:00,17.4,7.7,30.07,WNW,300,0.0,0.0,65,0.00,,,0.00,meteohub,2013-01-04 00:02:00,
2013-01-03 19:07:00,17.8,7.7,30.06,WNW,300,0.0,1.0,64,0.00,,,0.00,meteohub,2013-01-04 00:07:00,
2013-01-03 19:12:00,17.8,7.7,30.07,WNW,300,0.0,1.0,64,0.00,,,0.00,meteohub,2013-01-04 00:12:00,
2013-01-03 19:17:00,17.8,8.4,30.07,WNW,300,0.0,1.0,66,0.00,,,0.00,meteohub,2013-01-04 00:17:00,
2013-01-03 19:22:00,17.2,8.2,30.07,WNW,300,0.0,0.0,67,0.00,,,0.00,meteohub,2013-01-04 00:22:00,
2013-01-03 19:27:00,17.4,8.1,30.07,WNW,300,0.0,0.0,66,0.00,,,0.00,meteohub,2013-01-04 00:27:00,
2013-01-03 19:32:00,17.4,8.1,30.07,WNW,300,0.0,0.0,66,0.00,,,0.00,meteohub,2013-01-04 00:32:00,
2013-01-03 19:37:00,17.6,8.2,30.07,WNW,300,0.0,0.0,66,0.00,,,0.00,meteohub,2013-01-04 00:37:00,
2013-01-03 19:42:00,17.2,8.2,30.06,WNW,296,0.0,0.0,67,0.00,,,0.00,meteohub,2013-01-04 00:42:00,
2013-01-03 19:47:00,17.6,8.6,30.06,West,280,0.0,3.0,67,0.00,,,0.00,meteohub,2013-01-04 00:47:00,
2013-01-03 19:53:00,17.8,8.6,30.06,West,280,0.0,3.0,67,0.00,,,0.00,meteohub,2013-01-04 00:53:00,
2013-01-03 19:58:00,17.2,8.4,30.06,West,280,0.0,3.0,68,0.00,,,0.00,meteohub,2013-01-04 00:58:00,
2013-01-03 20:03:00,17.1,8.6,30.06,West,280,0.0,2.0,69,0.00,,,0.00,meteohub,2013-01-04 01:03:00,
2013-01-03 20:08:00,17.2,8.4,30.06,West,280,0.0,0.0,68,0.00,,,0.00,meteohub,2013-01-04 01:08:00,
2013-01-03 20:13:00,17.4,8.6,30.06,West,280,0.0,0.0,68,0.00,,,0.00,meteohub,2013-01-04 01:13:00,
2013-01-03 20:18:00,17.2,8.8,30.06,West,280,0.0,0.0,69,0.00,,,0.00,meteohub,2013-01-04 01:18:00,
2013-01-03 20:23:00,17.4,8.6,30.06,West,280,0.0,0.0,68,0.00,,,0.00,meteohub,2013-01-04 01:23:00,
2013-01-03 20:28:00,17.8,9.0,30.06,West,280,0.0,0.0,68,0.00,,,0.00,meteohub,2013-01-04 01:28:00,
2013-01-03 20:33:00,17.4,8.6,30.07,West,280,0.0,0.0,68,0.00,,,0.00,meteohub,2013-01-04 01:33:00,
2013-01-03 20:38:00,17.2,8.8,30.07,West,280,0.0,1.0,69,0.00,,,0.00,meteohub,2013-01-04 01:38:00,
2013-01-03 20:43:00,16.9,8.8,30.07,West,280,0.0,1.0,70,0.00,,,0.00,meteohub,2013-01-04 01:43:00,
2013-01-03 20:48:00,16.3,8.6,30.07,West,280,0.0,1.0,71,0.00,,,0.00,meteohub,2013-01-04 01:48:00,
2013-01-03 20:53:00,16.2,8.8,30.07,West,280,0.0,0.0,72,0.00,,,0.00,meteohub,2013-01-04 01:53:00,
2013-01-03 20:58:00,15.6,8.6,30.07,West,280,0.0,0.0,73,0.00,,,0.00,meteohub,2013-01-04 01:58:00,
2013-01-03 21:03:00,15.3,8.4,30.06,West,280,0.0,0.0,74,0.00,,,0.00,meteohub,2013-01-04 02:03:00,
2013-01-03 21:08:00,15.4,8.4,30.06,West,280,0.0,0.0,73,0.00,,,0.00,meteohub,2013-01-04 02:08:00,
2013-01-03 21:13:00,15.3,8.2,30.06,West,280,0.0,0.0,73,0.00,,,0.00,meteohub,2013-01-04 02:13:00,
2013-01-03 21:18:00,15.6,8.6,30.06,West,280,0.0,1.0,73,0.00,,,0.00,meteohub,2013-01-04 02:18:00,
2013-01-03 21:23:00,16.0,8.8,30.06,West,280,0.0,1.0,73,0.00,,,0.00,meteohub,2013-01-04 02:23:00,
2013-01-03 21:28:00,16.2,9.0,30.06,West,280,0.0,1.0,73,0.00,,,0.00,meteohub,2013-01-04 02:28:00,
2013-01-03 21:33:00,16.5,9.3,30.05,West,280,1.0,1.0,73,0.00,,,0.00,meteohub,2013-01-04 02:33:00,
2013-01-03 21:38:00,16.5,9.3,30.05,West,280,1.0,1.0,73,0.00,,,0.00,meteohub,2013-01-04 02:38:00,
2013-01-03 21:43:00,17.6,10.0,30.05,WNW,295,1.0,2.0,72,0.00,,,0.00,meteohub,2013-01-04 02:43:00,
2013-01-03 21:48:00,18.1,10.4,30.04,WNW,294,1.0,5.0,71,0.00,,,0.00,meteohub,2013-01-04 02:48:00,
2013-01-03 21:53:00,18.5,10.8,30.04,WNW,291,1.0,5.0,71,0.00,,,0.00,meteohub,2013-01-04 02:53:00,
2013-01-03 21:58:00,18.9,10.9,30.05,WNW,286,1.0,5.0,71,0.00,,,0.00,meteohub,2013-01-04 02:58:00,
2013-01-03 22:03:00,19.0,10.6,30.05,WNW,302,0.0,3.0,69,0.00,,,0.00,meteohub,2013-01-04 03:03:00,
2013-01-03 22:08:00,19.2,11.1,30.05,WNW,302,1.0,3.0,70,0.00,,,0.00,meteohub,2013-01-04 03:08:00,
2013-01-03 22:13:00,19.4,10.6,30.05,WNW,296,1.0,3.0,68,0.00,,,0.00,meteohub,2013-01-04 03:13:00,
2013-01-03 22:18:00,19.6,10.8,30.05,WNW,296,0.0,3.0,68,0.00,,,0.00,meteohub,2013-01-04 03:18:00,
2013-01-03 22:23:00,19.4,11.3,30.05,WNW,296,0.0,3.0,70,0.00,,,0.00,meteohub,2013-01-04 03:23:00,
2013-01-03 22:28:00,19.4,11.3,30.05,WSW,246,0.0,3.0,70,0.00,,,0.00,meteohub,2013-01-04 03:28:00,
2013-01-03 22:33:00,19.6,11.5,30.05,WSW,246,0.0,3.0,70,0.00,,,0.00,meteohub,2013-01-04 03:33:00,
2013-01-03 22:38:00,19.6,11.1,30.05,WSW,246,1.0,2.0,69,0.00,,,0.00,meteohub,2013-01-04 03:38:00,
2013-01-03 22:43:00,19.6,11.5,30.04,WSW,246,0.0,2.0,70,0.00,,,0.00,meteohub,2013-01-04 03:43:00,
2013-01-03 22:48:00,19.6,11.5,30.04,WSW,248,1.0,2.0,70,0.00,,,0.00,meteohub,2013-01-04 03:48:00,
2013-01-03 22:53:00,19.6,11.1,30.04,WSW,248,1.0,2.0,69,0.00,,,0.00,meteohub,2013-01-04 03:53:00,
2013-01-03 22:58:00,19.2,11.3,30.03,WSW,248,0.0,2.0,71,0.00,,,0.00,meteohub,2013-01-04 03:58:00,
2013-01-03 23:03:00,19.6,11.5,30.03,West,277,0.0,2.0,70,0.00,,,0.00,meteohub,2013-01-04 04:03:00,
2013-01-03 23:08:00,19.8,11.5,30.03,WNW,300,1.0,3.0,70,0.00,,,0.00,meteohub,2013-01-04 04:08:00,
2013-01-03 23:13:00,19.9,11.7,30.03,WNW,292,0.0,5.0,70,0.00,,,0.00,meteohub,2013-01-04 04:13:00,
2013-01-03 23:18:00,19.9,11.7,30.03,WNW,292,1.0,5.0,70,0.00,,,0.00,meteohub,2013-01-04 04:18:00,
2013-01-03 23:23:00,20.1,11.7,30.02,WNW,296,2.0,5.0,69,0.00,,,0.00,meteohub,2013-01-04 04:23:00,
2013-01-03 23:28:00,20.1,11.8,30.02,WNW,290,2.0,5.0,70,0.00,,,0.00,meteohub,2013-01-04 04:28:00,
2013-01-03 23:33:00,20.1,11.8,30.02,WNW,282,0.0,5.0,70,0.00,,,0.00,meteohub,2013-01-04 04:33:00,
2013-01-03 23:38:00,20.3,12.0,30.02,WNW,295,3.0,5.0,70,0.00,,,0.00,meteohub,2013-01-04 04:38:00,
2013-01-03 23:43:00,20.1,11.8,30.01,WNW,295,1.0,3.0,70,0.00,,,0.00,meteohub,2013-01-04 04:43:00,
2013-01-03 23:48:00,20.1,12.2,30.01,NW,315,2.0,3.0,71,0.00,,,0.00,meteohub,2013-01-04 04:48:00,
2013-01-03 23:53:00,20.1,12.2,30.01,NW,315,1.0,3.0,71,0.00,,,0.00,meteohub,2013-01-04 04:53:00,
2013-01-03 23:58:00,20.1,12.2,30.01,West,279,1.0,2.0,71,0.00,,,0.00,meteohub,2013-01-04 04:58:00,